Regional Weather Roundup
Issued by NWS Sioux Falls, SD

Home | Current Version | Previous Version | Graphics & Text | Print | Product List | Glossary On
Versions: 1 2 3 4 5 6 7 8 9 10 11 12 13 14 15 16 17 18 19 20 21 22 23 24 25 26 27 28 29 30 31 32 33 34 35 36 37 38 39 40 41 42 43 44 45 46 47 48 49 50
011
ASUS43 KFSD 081410
RWRFSD

WEATHER ROUNDUP FOR SE SOUTH DAKOTA/SW MINNESOTA/NW IOWA
NATIONAL WEATHER SERVICE SIOUX FALLS SD
800 AM CST MON FEB 08 2016

NOTE: "FAIR" INDICATES FEW OR NO CLOUDS BELOW 12,000 FEET WITH NO
SIGNIFICANT WEATHER AND OR OBSTRUCTIONS TO VISIBILITY.


SDZ038>040-050-052>070-081500-
SOUTHEAST SOUTH DAKOTA

CITY           SKY/WX    TMP DP  RH WIND       PRES   REMARKS
BROOKINGS      LGT SNOW  18  10  73 N30G38    30.02R WCI  -2
CHAMBERLAIN    CLEAR     25  17  72 NW17G26   30.22R WCI  11
HURON          CLOUDY    23  17  78 N18       30.16R WCI   9
MADISON        FLURRIES  18  18 100 N31G38    30.06R WCI  -2
MITCHELL       CLOUDY    26  18  71 N20G30    30.16R WCI  12
SIOUX FALLS    LGT SNOW  20  14  77 N24G39    30.06R BLWGSNOWWCI   3
WINNER         FAIR      26  16  65 NW24G32   30.24R WCI  11
YANKTON        CLOUDY   N/A N/A N/A NW29G45   30.11R
$$

MNZ071-072-080-081-089-090-097-098-081500-
SOUTHWEST MINNESOTA

CITY           SKY/WX    TMP DP  RH WIND       PRES   REMARKS
FAIRMONT       CLOUDY   N/A N/A N/A NW35G40   29.89R VSB 1
JACKSON        SNOW      14   9  79 NW40G49   29.93S WCI  -9
LUVERNE        CLOUDY    19  14  79 N25G35    30.02S WCI   2
MARSHALL       LGT SNOW  14   9  79 N31G43    30.02R WCI  -7
MONTEVIDEO     CLOUDY    12  10  92 N33G45    30.04R FOG     WCI -10
PIPESTONE      CLEAR     18   9  68 N16G30    30.00R WCI   3
REDWOOD FALLS  SNOW      12   8  84 N18G33    29.99R VSB 1/2 WCI  -6
TRACY          LGT SNOW  15  11  84 N35G43    30.00R WCI  -7
WINDOM         HVY SNOW  12   9  85 NW45G51   29.94R VSB<1/4 WCI -13
WORTHINGTON    CLOUDY   N/A N/A N/A N31G40    29.98R VSB 1/2
$$

IAZ001>003-012>014-020>022-031-032-NEZ013-014-SDZ071-081500-
NORTHWEST IOWA

CITY           SKY/WX    TMP DP  RH WIND       PRES   REMARKS
CHEROKEE       CLOUDY    18  13  82 N22G39    30.00S HAZE    WCI   0
DENISON        SNOW      19  16  86 N26G33    29.98R VSB 1/2 WCI   1
ESTHERVILLE    LGT SNOW  12   9  87 NW33G41   29.92R VSB 3/4 WCI -10
LE MARS        SNOW      21  21 100 N29G40    30.06R VSB 1/2 WCI   3
ORANGE CITY    CLOUDY    18  16  93 N17G28    30.02R WCI   2
SHELDON        SNOW      16  14  93 N33G40    29.99R VSB 1/2 WCI  -5
SIOUX CITY     FLURRIES  26  16  65 N36G48    30.04R WCI   8
SPENCER        LGT SNOW  15   9  76 NW29G39   29.97R WCI  -5
STORM LAKE     CLOUDY    16  14  93 NW30G38   29.96R WCI  -4
$$

ABBREVIATIONS USED IN REMARKS
   TC - TEMPERATURE IN CELSIUS
  WCI - WIND CHILL INDEX
   HX - HEAT INDEX
  VSB - VISIBILITY





USA.gov is the U.S. government's official web portal to all federal, state and local government web resources and services.